Las Vegas, NV

7:59 PM PDT on August 29, 2016 (GMT -0700)
Nellis AFB

Weather History for KLSV - May, 2013

Change the Weather History Date:

Monday, May 27, 2013

  Actual Average Record
Temperature  
Mean Temperature 79 °F -  
Max Temperature 92 °F 93 °F 105 °F (2000)
Min Temperature 67 °F 67 °F 55 °F (2012)
Cooling Degree Days 14    
Growing Degree Days 29 (Base 50)    
Moisture  
Dew Point 30 °F    
Average Humidity 17    
Maximum Humidity 29    
Minimum Humidity 9    
Precipitation  
Precipitation 0.00 in - - ()
Sea Level Pressure  
Sea Level Pressure 29.71 in    
Wind  
Wind Speed 10 mph (SSW)    
Max Wind Speed 17 mph    
Max Gust Speed 21 mph    
Visibility 10 miles    
Events      
Averages and records for this station are not official NWS values.
T = Trace of Precipitation, MM = Missing Value Source: NWS Daily Summary

Daily Weather History Graph

Daily Weather History Graph

Search for Another Location

Airport or City:

Trip Planner

Search our weather history database for the weather conditions in past years. The results will help you decide how hot, cold, wet, or windy it might be!

Date:

Astronomy

May. 27, 2013 Rise Set
Actual Time 5:26 AM PDT 7:49 PM PDT
Civil Twilight 4:56 AM PDT 8:18 PM PDT
Nautical Twilight 4:20 AM PDT 8:55 PM PDT
Astronomical Twilight 3:40 AM PDT 9:35 PM PDT
Moon 10:33 PM PDT (5/27) 8:06 AM PDT (5/27)
Length of Visible Light 15h 22m
Length of Day
14h 23m
Waning Gibbous, 90% of the Moon is Illuminated
May 27
Waning Gibbous
May 31
Last Quarter
Jun 8
New
Jun 16
First Quarter
Jun 23
Full

Hourly Weather History & Observations

Time (PDT) Temp. Dew Point Humidity Pressure Visibility Wind Dir Wind Speed Gust Speed Precip Events Conditions
12:58 AM 75.4 °F 33.1 °F 21% 29.75 in 10.0 mi South 17.3 mph - N/A   Clear
1:58 AM 73.6 °F 33.1 °F 23% 29.77 in 10.0 mi SSW 11.5 mph - N/A   Clear
2:58 AM 71.1 °F 32.9 °F 25% 29.77 in 10.0 mi SW 5.8 mph - N/A   Clear
3:58 AM 70.0 °F 33.1 °F 26% 29.77 in 10.0 mi SSW 11.5 mph - N/A   Clear
4:58 AM 68.9 °F 33.1 °F 27% 29.78 in 10.0 mi South 11.5 mph - N/A   Clear
5:58 AM 67.8 °F 34.0 °F 29% 29.79 in 10.0 mi South 9.2 mph - N/A   Clear
6:58 AM 69.1 °F 35.1 °F 29% 29.81 in 10.0 mi South 5.8 mph - N/A   Clear
7:58 AM 71.2 °F 35.1 °F 27% 29.81 in 10.0 mi SW 4.6 mph - N/A   Clear
8:58 AM 74.8 °F 35.4 °F 24% 29.81 in 10.0 mi SSW 2.3 mph - N/A   Clear
9:58 AM 77.7 °F 34.9 °F 21% 29.80 in 10.0 mi ENE 2.3 mph - N/A   Clear
10:58 AM 81.5 °F 33.3 °F 18% 29.79 in 10.0 mi Variable 3.5 mph - N/A   Clear
11:58 AM 84.4 °F 30.0 °F 14% 29.77 in 10.0 mi South 9.2 mph - N/A   Clear
12:58 PM 86.7 °F 28.9 °F 12% 29.74 in 10.0 mi SW 9.2 mph - N/A   Partly Cloudy
1:58 PM 87.8 °F 27.7 °F 11% 29.72 in 7.0 mi South 8.1 mph - N/A   Clear
2:58 PM 90.5 °F 27.5 °F 10% 29.68 in 10.0 mi South 5.8 mph - N/A   Clear
3:58 PM 90.7 °F 27.7 °F 10% 29.66 in 10.0 mi SSW 5.8 mph - N/A   Clear
4:58 PM 91.6 °F 25.7 °F 9% 29.62 in 10.0 mi South 12.7 mph - N/A   Clear
5:34 PM 91.4 °F 26.6 °F 10% 29.67 in 10.0 mi SSW 12.7 mph 20.7 mph N/A   Clear
5:58 PM 91.6 °F 25.7 °F 9% 29.61 in 10.0 mi WSW 17.3 mph - N/A   Clear
6:58 PM 90.1 °F 24.6 °F 9% 29.61 in 10.0 mi WSW 15.0 mph - N/A   Clear
7:58 PM 88.0 °F 25.5 °F 10% 29.61 in 10.0 mi SW 12.7 mph - N/A   Clear
8:58 PM 84.7 °F 27.3 °F 12% 29.61 in 10.0 mi SSW 9.2 mph - N/A   Clear
9:58 PM 82.8 °F 27.7 °F 13% 29.61 in 10.0 mi South 10.4 mph - N/A   Clear
10:58 PM 82.8 °F 29.1 °F 14% 29.60 in 10.0 mi South 11.5 mph - N/A   Clear
11:58 PM 80.4 °F 32.4 °F 18% 29.59 in 10.0 mi South 16.1 mph - N/A   Clear